NOAA 16 DEB, 42390

Orbit data source: Space-Track

NOAA 16 DEB, 42390 is space debris in SSO originally from a launch on Thu, 21 Sep 2000 UTC launched from the Air Force Western Test Range (AFWTR). Debris objects in space refer to the collection of defunct objects orbiting the Earth. Examples of debris include non-operational satellites, rocket bodies, and fragments generated from explosions, collisions, or faulty payload assembly.

Loading next visibility...
Identifier
42390, 2000-055SJ
Orbit
SSO
Country
Flag of USUS
Related business
Manufacturer
Unknown
Mission
Spacecraft
Bus & Motor
Unknown
Mass
Unknown
Launch date (UTC)
2000-09-21 (25 years ago)
Launch vehicle
Unknown
Launch site
Air Force Western Test Range (AFWTR)
Object type
Payload
Rocket body
Debris
Shape & HBR
Unknown
Radar Cross Section
Small (<0.1 m²)

Expand to show TLE details & history
Last TLE update: 1 day ago

TLE from 1 day ago
0 NOAA 16 DEB
1 42390U 00055SJ  25260.69351339  .00002382  00000-0  98544-3 0  9990
2 42390  98.6412 333.0826 0014501 250.3039 109.6578 14.27533575495475
Epoch: 2025-09-17T16:38Z
TLE epoch observation values (Epoch: 2025-09-17T16:38:39.556Z)
Latitude
-0.00001°
Longitude
86.55199°
Altitude
806.43 km
Speed
7.448 km/s
True Right ascension
22h 12m 19s
True Declination
0° 00' 00"
Sunlit
Object was in full shadow at epoch
Visualization orbit readout
Latitude
Unknown
Longitude
Unknown
Altitude
Unknown
Speed
Unknown
Apparent Right ascension
Unknown
Apparent Declination
Unknown
Sunlit
N/A
Visualization observer readout
Local Sidereal Time
21:01:27
Azimuth
Unknown
Elevation
Unknown
Doppler factor
Unknown
Orbital elements
Apogee altitude
807.537 km
Perigee altitude
786.727 km
Semi-major axis
7,175.269 km
Eccentricity
0.00145
Inclination
98.6412°
RAAN
333.0826°
Arg. of periapsis
250.3039°
True anomaly
109.81419°
Mean anomaly
109.6578°
Eccentric anomaly
109.736°
Mean motion
3.57097 °/min
Orbital period
100.81 mins
BSTAR
0.00098544
Loading maneuver chart data...
Computing Atmospheric mass density...
Loading historical data...
Loading historical data...
Loading historical data...
Loading historical data...
Loading historical data...
Loading historical data...
Loading historical data...

Documentation

Showing up to 5 results
|